Location: Topeka
(39.0480°N, 95.6780°W)
Time: 00:37:11
(UTC-05:00)

ISS - Visible Passes

Search period start: 25 March 2019 00:00
Search period end: 04 April 2019 00:00
Orbit: 408 x 411 km, 51.6° (Epoch: 25 March)

Date Brightness Start Highest point End Pass type
(mag) Time Alt. Az. Time Alt. Az. Time Alt. Az.
25 Mar -1.8 20:25:20 10° W 20:28:10 26° NNW 20:31:03 10° NNE visible
25 Mar -0.6 22:05:05 10° NNW 22:05:31 10° N 22:05:31 10° N visible
26 Mar -0.9 21:13:16 10° NW 21:14:44 12° NNW 21:16:11 10° NNE visible
27 Mar -1.1 20:21:43 10° WNW 20:23:49 16° NNW 20:25:55 10° NNE visible
29 Mar -0.9 20:18:31 10° NNW 20:19:32 11° N 20:20:34 10° N visible
29 Mar -0.8 21:56:32 10° N 21:56:56 10° N 21:56:56 10° N visible
31 Mar -1.1 21:51:05 10° NNW 21:52:22 14° N 21:52:22 14° N visible
01 Apr -1.2 21:00:47 10° N 21:02:04 12° NNE 21:03:21 10° NE visible
01 Apr -0.3 22:36:17 10° NW 22:36:26 11° NW 22:36:26 11° NW visible
02 Apr -1.0 20:10:48 10° N 20:11:01 10° N 20:11:15 10° N visible
02 Apr -1.7 21:45:48 10° NNW 21:47:45 22° N 21:47:45 22° N visible
03 Apr -1.6 20:55:21 10° NNW 20:57:38 17° NNE 20:59:06 14° NE visible
03 Apr -0.6 22:31:17 10° NW 22:31:51 14° NW 22:31:51 14° NW visible
